This demonstration page uses our WeatherBlox Daily Observations layout. Learn more.

Left ArrowRight Arrow

Hourly Observations for April 18, 2015

Temp ( °F °C ) Dew Point ( °F °C ) Humidity (%) Winds ( mph kmh ) Pressure ( in mb ) Visibility ( mi km ) Precip ( " mm )
12:53 am 00:53 Partly Cloudy 55 12.8 52 11.1 90 90 E 7 11 29.96 1014 10 16 0.00 0.00
1:53 am 01:53 Mostly Cloudy 56 13.3 53 11.7 90 90 ENE 7 11 29.94 1014 10 16 0.00 0.00
2:53 am 02:53 Mostly Clear 58 14.4 54 12.2 87 87 ESE 12 19 29.91 1013 10 16 0.02 0.51
3:53 am 03:53 Cloudy with Light Rain 57 13.9 55 12.8 93 93 SE 10 17 29.89 1012 7 11 0.00 0.03
4:53 am 04:53 Cloudy 57 13.9 55 12.8 93 93 SE 8 13 29.87 1012 7 11 0.01 0.25
5:10 am 05:10 Cloudy with Light Rain 57 13.9 55 12.8 93 93 SW 12 19 29.88 1012 6 10 0.00 0.03
5:16 am 05:16 Cloudy with Nearby Thunderstorms 57 14 55 13 94 94 SW 7 11 29.88 1012 3 4 0.00 0.00
5:23 am 05:23 Cloudy with Nearby Thunderstorms 56 13.3 55 12.8 97 97 SSW 8 13 29.94 1014 2 3 0.12 3.05
5:27 am 05:27 Cloudy with Strong Thunderstorms 56 13.3 55 12.8 97 97 SSW 9 15 29.94 1014 2 3 0.15 3.81
5:43 am 05:43 Cloudy with Thunderstorms 56 13.3 54 12.2 93 93 WNW 6 9 29.91 1013 3 5 0.21 5.33
5:53 am 05:53 Cloudy with Nearby Thunderstorms 56 13.3 55 12.8 97 97 SW 3 6 29.89 1012 5 8 0.22 5.59
6:06 am 06:06 Cloudy with Light Rain 55 13 54 12 94 94 Calm 29.91 1013 5 8 0.00 0.00
6:53 am 06:53 Cloudy with Light Rain 55 12.8 55 12.8 100 100 E 9 15 29.86 1011 6 10 0.14 3.56
7:53 am 07:53 Partly Cloudy 58 14.4 50 10 75 75 SSW 14 22 29.88 1012 10 16 0.02 0.51
8:53 am 08:53 Mostly Cloudy 55 12.8 54 12.2 96 96 WNW 8 13 29.87 1012 8 13 0.00 0.00
9:41 am 09:41 Partly Cloudy 57 13.9 54 12.2 90 90 NNW 6 9 29.85 1011 7 11 0.00 0.00
9:53 am 09:53 Mostly Cloudy 57 13.9 55 12.8 93 93 N 5 7 29.88 1012 8 13 0.00 0.00
10:26 am 10:26 Partly Cloudy 58 14.4 55 12.8 90 90 ENE 5 7 29.88 1012 8 13 0.00 0.00
10:53 am 10:53 Mostly Sunny 59 15 55 12.8 87 87 E 3 6 29.89 1012 10 16 0.00 0.00
11:53 am 11:53 Mostly Sunny 61 16.1 55 12.8 81 81 SSE 6 9 29.88 1012 10 16 0.00 0.00
12:53 pm 12:53 Partly Cloudy 63 17.2 55 12.8 76 76 VRB 5 7 29.84 1011 10 16 0.00 0.00
1:53 pm 13:53 Partly Cloudy 65 18.3 56 13.3 73 73 VRB 7 11 29.83 1010 10 16 0.00 0.00
2:53 pm 14:53 Partly Cloudy 68 20 55 12.8 63 63 S 8 13 29.81 1010 10 16 0.00 0.00
3:53 pm 15:53 Mostly Sunny 69 20.6 55 12.8 61 61 ESE 6 9 29.78 1008 10 16 0.00 0.00
4:53 pm 16:53 Mostly Sunny 70 21.1 54 12.2 57 57 VRB 7 11 29.74 1007 10 16 0.00 0.00
5:53 pm 17:53 Mostly Sunny 70 21.1 55 12.8 59 59 ESE 10 17 29.72 1007 10 16 0.00 0.00
6:51 pm 18:51 Partly Cloudy with Nearby Thunderstorms 66 19 55 13 68 68 ESE 14 22 29.71 1006 10 16 0.00 0.00
6:53 pm 18:53 Partly Cloudy with Nearby Thunderstorms 66 18.9 56 13.3 70 70 SE 14 22 29.74 1007 10 16 0.00 0.00
7:51 pm 19:51 Cloudy with Thunderstorms 55 13 46 8 72 72 WNW 29 46 29.80 1009 10 16 0.00 0.00
7:53 pm 19:53 Cloudy with Thunderstorms 54 12.2 46 7.8 75 75 W 26 43 29.82 1010 10 16 0.00 0.00
8:05 pm 20:05 Cloudy with Strong Thunderstorms 50 10 46 7.8 86 86 WNW 13 20 29.83 1010 2 3 0.27 6.86
8:10 pm 20:10 Cloudy with Thunderstorms 52 11 46 8 82 82 WNW 15 24 29.83 1010 3 5 0.00 0.00
8:38 pm 20:38 Cloudy with Nearby Thunderstorms 53 11.7 49 9.4 86 86 NNW 12 19 29.83 1010 6 10 0.35 8.89
8:53 pm 20:53 Cloudy with Light Rain 55 12.8 49 9.4 80 80 NW 9 15 29.83 1010 10 16 0.35 8.89
9:53 pm 21:53 Cloudy with Light Rain 53 11.7 49 9.4 86 86 NNW 9 15 29.85 1011 10 16 0.02 0.51
10:53 pm 22:53 Cloudy with Light Rain 53 11.7 48 8.9 83 83 N 9 15 29.82 1010 10 16 0.05 1.27
11:53 pm 23:53 Cloudy 53 11.7 48 8.9 83 83 SSW 6 9 29.77 1008 10 16 0.00 0.03

Powered by AerisWeather